| time (UTC) | temp F | wind direction | speed knots | gust knots | rain 1hr in | rain 24hr in | rain mn in | humidity % | barometer mb |
| 20260901173544 | 92 | 306 | 2.6 | 7.8 | 0.00 | 0.00 | 0.00 | 54 | 1019.0 |
| 20260901173103 | 92 | 179 | 1.7 | 5.2 | 0.00 | 0.00 | 0.00 | 56 | 1019.2 |
| 20260901172544 | 92 | 176 | 2.6 | 6.1 | 0.00 | 0.00 | 0.00 | 57 | 1019.2 |
| 20260901172041 | 92 | 177 | 2.6 | 6.1 | 0.00 | 0.00 | 0.00 | 56 | 1019.2 |
| 20260901171608 | 92 | 237 | 2.6 | 7.0 | 0.00 | 0.00 | 0.00 | 58 | 1019.3 |
| 20260901171040 | 91 | 199 | 2.6 | 7.0 | 0.00 | 0.00 | 0.00 | 58 | 1019.4 |
| 20260901170544 | 91 | 134 | 3.5 | 5.2 | 0.00 | 0.00 | 0.00 | 59 | 1019.4 |
| 20260901170159 | 91 | 263 | 1.7 | 5.2 | 0.00 | 0.00 | 0.00 | 58 | 1019.5 |
| 20260901165546 | 91 | 222 | 3.5 | 5.2 | 0.00 | 0.00 | 0.00 | 57 | 1019.6 |
| 20260901165046 | 91 | 218 | 2.6 | 6.1 | 0.00 | 0.00 | 0.00 | 58 | 1019.6 |
| 20260901164605 | 91 | 206 | 2.6 | 7.0 | 0.00 | 0.00 | 0.00 | 61 | 1019.7 |
| 20260901164041 | 90 | 266 | 1.7 | 7.0 | 0.00 | 0.00 | 0.00 | 62 | 1019.7 |
| 20260901163542 | 91 | 277 | 3.5 | 6.1 | 0.00 | 0.00 | 0.00 | 60 | 1019.7 |
| 20260901163110 | 90 | 206 | 1.7 | 4.3 | 0.00 | 0.00 | 0.00 | 65 | 1019.8 |
| 20260901162546 | 90 | 0 | 0.9 | 4.3 | 0.00 | 0.00 | 0.00 | 62 | 1019.8 |
| 20260901162042 | 90 | 234 | 2.6 | 5.2 | 0.00 | 0.00 | 0.00 | 67 | 1019.7 |
| 20260901161615 | 90 | 280 | 2.6 | 5.2 | 0.00 | 0.00 | 0.00 | 61 | 1019.8 |
| 20260901161041 | 90 | 249 | 1.7 | 5.2 | 0.00 | 0.00 | 0.00 | 64 | 1019.7 |
| 20260901160542 | 89 | 344 | 0.9 | 5.2 | 0.00 | 0.00 | 0.00 | 62 | 1019.7 |
| 20260901160058 | 89 | 275 | 1.7 | 7.0 | 0.00 | 0.00 | 0.00 | 64 | 1019.7 |
| 20260901155542 | 89 | 263 | 3.5 | 7.0 | 0.00 | 0.00 | 0.00 | 63 | 1019.7 |
| 20260901155044 | 89 | 311 | 3.5 | 7.0 | 0.00 | 0.00 | 0.00 | 64 | 1019.7 |
| 20260901154605 | 89 | 279 | 3.5 | 7.8 | 0.00 | 0.00 | 0.00 | 64 | 1019.9 |
| 20260901154043 | 88 | 277 | 2.6 | 7.8 | 0.00 | 0.00 | 0.00 | 65 | 1019.9 |
| 20260901153541 | 88 | 295 | 3.5 | 7.8 | 0.00 | 0.00 | 0.00 | 65 | 1019.9 |
| 20260901153127 | 88 | 279 | 3.5 | 7.8 | 0.00 | 0.00 | 0.00 | 65 | 1020.0 |
| 20260901152540 | 88 | 298 | 3.5 | 7.8 | 0.00 | 0.00 | 0.00 | 66 | 1020.0 |
| 20260901152042 | 88 | 229 | 3.5 | 6.1 | 0.00 | 0.00 | 0.00 | 64 | 1020.0 |
| 20260901151600 | 87 | 282 | 1.7 | 6.1 | 0.00 | 0.00 | 0.00 | 67 | 1020.0 |
| 20260901151043 | 87 | 217 | 2.6 | 7.8 | 0.00 | 0.00 | 0.00 | 67 | 1019.9 |
| 20260901150544 | 87 | 276 | 2.6 | 7.8 | 0.00 | 0.00 | 0.00 | 69 | 1019.9 |
| 20260901150058 | 87 | 231 | 0.9 | 4.3 | 0.00 | 0.00 | 0.00 | 67 | 1019.9 |
| 20260901145544 | 86 | 197 | 2.6 | 4.3 | 0.00 | 0.00 | 0.00 | 70 | 1019.9 |
| 20260901145042 | 86 | 219 | 2.6 | 5.2 | 0.00 | 0.00 | 0.00 | 71 | 1019.9 |
| 20260901144600 | 86 | 220 | 2.6 | 5.2 | 0.00 | 0.00 | 0.00 | 69 | 1019.9 |
| 20260901144045 | 85 | 225 | 1.7 | 7.0 | 0.00 | 0.00 | 0.00 | 73 | 1019.9 |
| 20260901143543 | 85 | 225 | 3.5 | 7.0 | 0.00 | 0.00 | 0.00 | 72 | 1020.0 |
| 20260901143103 | 85 | 216 | 3.5 | 5.2 | 0.00 | 0.00 | 0.00 | 72 | 1020.0 |
| 20260901142542 | 85 | 238 | 2.6 | 5.2 | 0.00 | 0.00 | 0.00 | 72 | 1019.9 |
| 20260901142042 | 85 | 238 | 1.7 | 5.2 | 0.00 | 0.00 | 0.00 | 75 | 1019.9 |
| 20260901141559 | 84 | 240 | 2.6 | 5.2 | 0.00 | 0.00 | 0.00 | 73 | 1020.0 |
| 20260901141043 | 84 | 207 | 0.0 | 4.3 | 0.00 | 0.00 | 0.00 | 74 | 1020.0 |
| 20260901140542 | 84 | 188 | 2.6 | 4.3 | 0.00 | 0.00 | 0.00 | 77 | 1020.0 |
| 20260901140112 | 83 | 227 | 0.9 | 5.2 | 0.00 | 0.00 | 0.00 | 74 | 1019.9 |
| 20260901135546 | 82 | 180 | 1.7 | 5.2 | 0.00 | 0.00 | 0.00 | 76 | 1019.9 |
| 20260901135043 | 82 | 196 | 2.6 | 4.3 | 0.00 | 0.00 | 0.00 | 76 | 1019.9 |
| 20260901134604 | 82 | 223 | 1.7 | 4.3 | 0.00 | 0.00 | 0.00 | 77 | 1019.9 |
| 20260901134042 | 82 | 171 | 0.9 | 4.3 | 0.00 | 0.00 | 0.00 | 79 | 1019.9 |
| 20260901133543 | 81 | 217 | 1.7 | 4.3 | 0.00 | 0.00 | 0.00 | 79 | 1019.9 |
| 20260901133101 | 81 | 190 | 1.7 | 4.3 | 0.00 | 0.00 | 0.00 | 81 | 1019.9 |
| 20260901132541 | 80 | 240 | 1.7 | 4.3 | 0.00 | 0.00 | 0.00 | 82 | 1019.9 |
| 20260901132044 | 80 | 217 | 1.7 | 2.6 | 0.00 | 0.00 | 0.00 | 83 | 1019.8 |
| 20260901131630 | 79 | 0 | 0.0 | 2.6 | 0.00 | 0.00 | 0.00 | 84 | 1019.9 |
| 20260901131043 | 78 | 0 | 0.0 | 0.0 | 0.00 | 0.00 | 0.00 | 86 | 1019.8 |
| 20260901130543 | 78 | 0 | 0.0 | 0.0 | 0.00 | 0.00 | 0.00 | 85 | 1019.8 |
| 20260901130101 | 77 | 0 | 0.0 | 0.0 | 0.00 | 0.00 | 0.00 | 86 | 1019.8 |
| 20260901125543 | 77 | 0 | 0.0 | 0.0 | 0.00 | 0.00 | 0.00 | 88 | 1019.7 |
| 20260901125043 | 76 | 0 | 0.0 | 1.7 | 0.00 | 0.00 | 0.00 | 88 | 1019.7 |
| 20260901124603 | 75 | 0 | 0.0 | 1.7 | 0.00 | 0.00 | 0.00 | 88 | 1019.7 |
| 20260901124041 | 75 | 0 | 0.0 | 0.0 | 0.00 | 0.00 | 0.00 | 89 | 1019.6 |
| 20260901123542 | 74 | 0 | 0.0 | 0.0 | 0.00 | 0.00 | 0.00 | 90 | 1019.6 |
| 20260901123106 | 73 | 0 | 0.0 | 0.0 | 0.00 | 0.00 | 0.00 | 91 | 1019.5 |
| 20260901122544 | 73 | 0 | 0.0 | 0.0 | 0.00 | 0.00 | 0.00 | 91 | 1019.6 |
| 20260901122043 | 72 | 0 | 0.0 | 0.0 | 0.00 | 0.00 | 0.00 | 92 | 1019.5 |
| 20260901121607 | 72 | 0 | 0.0 | 0.0 | 0.00 | 0.00 | 0.00 | 92 | 1019.4 |
| 20260901121044 | 71 | 0 | 0.0 | 0.0 | 0.00 | 0.00 | 0.00 | 92 | 1019.3 |
| 20260901120546 | 71 | 0 | 0.0 | 0.0 | 0.00 | 0.00 | 0.00 | 92 | 1019.2 |
| 20260901120108 | 71 | 0 | 0.0 | 0.0 | 0.00 | 0.00 | 0.00 | 90 | 1019.2 |
| 20260901115542 | 71 | 0 | 0.0 | 0.0 | 0.00 | 0.00 | 0.00 | 90 | 1019.2 |
| 20260901115044 | 71 | 0 | 0.0 | 1.7 | 0.00 | 0.00 | 0.00 | 90 | 1019.2 |
| 20260901114605 | 72 | 0 | 0.0 | 1.7 | 0.00 | 0.00 | 0.00 | 90 | 1019.2 |
| 20260901114043 | 72 | 0 | 0.0 | 0.0 | 0.00 | 0.00 | 0.00 | 90 | 1019.1 |
| 20260901113543 | 72 | 0 | 0.0 | 0.0 | 0.00 | 0.00 | 0.00 | 90 | 1019.0 |
| 20260901113110 | 72 | 0 | 0.0 | 0.0 | 0.00 | 0.00 | 0.00 | 90 | 1019.0 |
| 20260901112540 | 72 | 0 | 0.0 | 0.0 | 0.00 | 0.00 | 0.00 | 90 | 1018.9 |
| 20260901112046 | 72 | 0 | 0.0 | 0.0 | 0.00 | 0.00 | 0.00 | 90 | 1018.8 |
| 20260901111610 | 72 | 0 | 0.0 | 0.0 | 0.00 | 0.00 | 0.00 | 90 | 1018.8 |
| 20260901111042 | 72 | 0 | 0.0 | 0.0 | 0.00 | 0.00 | 0.00 | 90 | 1018.5 |
| 20260901110542 | 72 | 0 | 0.0 | 0.0 | 0.00 | 0.00 | 0.00 | 91 | 1018.5 |
| 20260901110118 | 72 | 0 | 0.0 | 0.0 | 0.00 | 0.00 | 0.00 | 91 | 1018.4 |
| 20260901105542 | 72 | 0 | 0.0 | 0.0 | 0.00 | 0.00 | 0.00 | 91 | 1018.4 |
| 20260901105042 | 72 | 0 | 0.0 | 0.0 | 0.00 | 0.00 | 0.00 | 91 | 1018.4 |
| 20260901104604 | 72 | 0 | 0.0 | 0.0 | 0.00 | 0.00 | 0.00 | 91 | 1018.4 |
| 20260901104043 | 72 | 0 | 0.0 | 0.0 | 0.00 | 0.00 | 0.00 | 91 | 1018.4 |
| 20260901103542 | 72 | 0 | 0.0 | 0.0 | 0.00 | 0.00 | 0.00 | 90 | 1018.4 |
| 20260901103106 | 72 | 0 | 0.0 | 0.0 | 0.00 | 0.00 | 0.00 | 90 | 1018.4 |
| 20260901102543 | 72 | 0 | 0.0 | 0.0 | 0.00 | 0.00 | 0.00 | 90 | 1018.4 |
| 20260901102042 | 73 | 0 | 0.0 | 0.0 | 0.00 | 0.00 | 0.00 | 90 | 1018.4 |
| 20260901101609 | 73 | 0 | 0.0 | 0.0 | 0.00 | 0.00 | 0.00 | 90 | 1018.3 |
| 20260901101044 | 73 | 0 | 0.0 | 0.0 | 0.00 | 0.00 | 0.00 | 90 | 1018.4 |
| 20260901100545 | 73 | 0 | 0.0 | 0.0 | 0.00 | 0.00 | 0.00 | 90 | 1018.3 |
| 20260901100110 | 73 | 0 | 0.0 | 0.0 | 0.00 | 0.00 | 0.00 | 91 | 1018.4 |
| 20260901095542 | 73 | 0 | 0.0 | 0.0 | 0.00 | 0.00 | 0.00 | 91 | 1018.3 |
| 20260901095042 | 73 | 0 | 0.0 | 0.0 | 0.00 | 0.00 | 0.00 | 91 | 1018.2 |
| 20260901094608 | 73 | 0 | 0.0 | 0.0 | 0.00 | 0.00 | 0.00 | 91 | 1018.1 |
| 20260901094043 | 72 | 0 | 0.0 | 0.0 | 0.00 | 0.00 | 0.00 | 91 | 1018.1 |
| 20260901093543 | 73 | 0 | 0.0 | 0.0 | 0.00 | 0.00 | 0.00 | 91 | 1018.0 |
| 20260901093105 | 73 | 0 | 0.0 | 0.0 | 0.00 | 0.00 | 0.00 | 91 | 1018.1 |
| 20260901092542 | 73 | 0 | 0.0 | 0.0 | 0.00 | 0.00 | 0.00 | 91 | 1018.0 |
| 20260901092042 | 73 | 0 | 0.0 | 0.0 | 0.00 | 0.00 | 0.00 | 91 | 1018.1 |
| 20260901091600 | 73 | 0 | 0.0 | 0.0 | 0.00 | 0.00 | 0.00 | 91 | 1018.1 |
| 20260901091041 | 73 | 0 | 0.0 | 0.0 | 0.00 | 0.00 | 0.00 | 91 | 1018.0 |
| 20260901090545 | 73 | 0 | 0.0 | 0.0 | 0.00 | 0.00 | 0.00 | 91 | 1018.1 |
| 20260901090106 | 73 | 0 | 0.0 | 0.0 | 0.00 | 0.00 | 0.00 | 90 | 1018.0 |
| 20260901085541 | 73 | 0 | 0.0 | 0.0 | 0.00 | 0.00 | 0.00 | 90 | 1017.8 |
| 20260901085043 | 73 | 0 | 0.0 | 0.0 | 0.00 | 0.00 | 0.00 | 90 | 1017.9 |
| 20260901084616 | 73 | 0 | 0.0 | 0.0 | 0.00 | 0.00 | 0.00 | 90 | 1017.9 |
| 20260901084042 | 73 | 0 | 0.0 | 0.0 | 0.00 | 0.00 | 0.00 | 90 | 1017.9 |
| 20260901083542 | 73 | 0 | 0.0 | 0.0 | 0.00 | 0.00 | 0.00 | 90 | 1017.8 |
| 20260901083103 | 73 | 0 | 0.0 | 0.0 | 0.00 | 0.00 | 0.00 | 90 | 1017.8 |
| 20260901082543 | 73 | 0 | 0.0 | 0.0 | 0.00 | 0.00 | 0.00 | 91 | 1017.8 |
| 20260901082043 | 73 | 0 | 0.0 | 0.0 | 0.00 | 0.00 | 0.00 | 91 | 1017.7 |
| 20260901081610 | 73 | 0 | 0.0 | 0.0 | 0.00 | 0.00 | 0.00 | 91 | 1017.7 |
| 20260901081042 | 72 | 0 | 0.0 | 0.0 | 0.00 | 0.00 | 0.00 | 91 | 1017.7 |
| 20260901080543 | 72 | 0 | 0.0 | 0.0 | 0.00 | 0.00 | 0.00 | 91 | 1017.7 |
| 20260901080100 | 72 | 0 | 0.0 | 0.0 | 0.00 | 0.00 | 0.00 | 91 | 1017.7 |
| 20260901075543 | 72 | 0 | 0.0 | 0.0 | 0.00 | 0.00 | 0.00 | 92 | 1017.7 |
| 20260901075042 | 72 | 0 | 0.0 | 0.0 | 0.00 | 0.00 | 0.00 | 91 | 1017.6 |
| 20260901074604 | 71 | 0 | 0.0 | 0.0 | 0.00 | 0.00 | 0.00 | 92 | 1017.6 |
| 20260901074046 | 71 | 0 | 0.0 | 0.0 | 0.00 | 0.00 | 0.00 | 92 | 1017.6 |
| 20260901073542 | 71 | 0 | 0.0 | 0.0 | 0.00 | 0.00 | 0.00 | 92 | 1017.7 |
| 20260901073101 | 71 | 0 | 0.0 | 0.0 | 0.00 | 0.00 | 0.00 | 92 | 1017.6 |
| 20260901072541 | 71 | 0 | 0.0 | 0.0 | 0.00 | 0.00 | 0.00 | 92 | 1017.7 |
| 20260901072041 | 71 | 0 | 0.0 | 0.0 | 0.00 | 0.00 | 0.00 | 92 | 1017.6 |
| 20260901071601 | 71 | 0 | 0.0 | 0.0 | 0.00 | 0.00 | 0.00 | 92 | 1017.6 |
| 20260901071042 | 71 | 0 | 0.0 | 0.0 | 0.00 | 0.00 | 0.00 | 92 | 1017.6 |
| 20260901070540 | 71 | 0 | 0.0 | 0.0 | 0.00 | 0.00 | 0.00 | 92 | 1017.6 |
| 20260901070100 | 71 | 0 | 0.0 | 0.0 | 0.00 | 0.00 | 0.00 | 91 | 1017.7 |
| 20260901065542 | 71 | 0 | 0.0 | 0.0 | 0.00 | 0.00 | 0.00 | 90 | 1017.6 |
| 20260901065135 | 72 | 0 | 0.0 | 0.0 | 0.00 | 0.00 | 0.00 | 91 | 1017.6 |
| 20260901064558 | 72 | 0 | 0.0 | 0.0 | 0.00 | 0.00 | 0.00 | 91 | 1017.7 |
| 20260901064043 | 72 | 0 | 0.0 | 0.0 | 0.00 | 0.00 | 0.00 | 91 | 1017.8 |
| 20260901063542 | 72 | 0 | 0.0 | 0.0 | 0.00 | 0.00 | 0.00 | 91 | 1017.8 |
| 20260901063103 | 72 | 0 | 0.0 | 0.0 | 0.00 | 0.00 | 0.00 | 91 | 1017.8 |
| 20260901062541 | 71 | 0 | 0.0 | 0.0 | 0.00 | 0.00 | 0.00 | 91 | 1017.9 |
| 20260901062043 | 71 | 0 | 0.0 | 0.0 | 0.00 | 0.00 | 0.00 | 91 | 1018.0 |
| 20260901061610 | 71 | 0 | 0.0 | 0.0 | 0.00 | 0.00 | 0.00 | 91 | 1018.0 |
| 20260901061043 | 72 | 0 | 0.0 | 0.0 | 0.00 | 0.00 | 0.00 | 91 | 1018.0 |
| 20260901060545 | 71 | 0 | 0.0 | 0.0 | 0.00 | 0.00 | 0.00 | 91 | 1018.0 |
| 20260901060104 | 72 | 0 | 0.0 | 0.0 | 0.00 | 0.00 | 0.00 | 90 | 1018.0 |
| 20260901055542 | 72 | 0 | 0.0 | 0.0 | 0.00 | 0.00 | 0.00 | 91 | 1018.1 |
| 20260901055042 | 72 | 0 | 0.0 | 0.0 | 0.00 | 0.00 | 0.00 | 91 | 1018.2 |
| 20260901054602 | 72 | 0 | 0.0 | 0.0 | 0.00 | 0.00 | 0.00 | 91 | 1018.1 |
| 20260901054044 | 72 | 0 | 0.0 | 0.0 | 0.00 | 0.00 | 0.00 | 91 | 1018.1 |
| 20260901053543 | 72 | 0 | 0.0 | 0.0 | 0.00 | 0.00 | 0.00 | 91 | 1018.1 |
| 20260901053124 | 72 | 0 | 0.0 | 0.0 | 0.00 | 0.00 | 0.00 | 92 | 1018.1 |
| 20260901052542 | 72 | 0 | 0.0 | 0.0 | 0.00 | 0.00 | 0.00 | 91 | 1018.0 |
| 20260901052042 | 72 | 0 | 0.0 | 0.0 | 0.00 | 0.00 | 0.00 | 91 | 1018.1 |
| 20260901051602 | 72 | 0 | 0.0 | 0.0 | 0.00 | 0.00 | 0.00 | 91 | 1018.1 |
| 20260901051043 | 72 | 0 | 0.0 | 0.0 | 0.00 | 0.00 | 0.00 | 91 | 1018.1 |
| 20260901050544 | 72 | 0 | 0.0 | 0.0 | 0.00 | 0.00 | 0.00 | 91 | 1018.1 |
| 20260901050100 | 72 | 0 | 0.0 | 0.0 | 0.00 | 0.00 | 0.00 | 90 | 1018.1 |
| 20260901045544 | 72 | 0 | 0.0 | 0.0 | 0.00 | 0.00 | 0.00 | 89 | 1018.1 |
| 20260901045043 | 73 | 0 | 0.0 | 0.0 | 0.00 | 0.00 | 0.00 | 89 | 1018.0 |
| 20260901044606 | 74 | 0 | 0.0 | 0.0 | 0.00 | 0.00 | 0.00 | 89 | 1018.0 |
| 20260901044044 | 74 | 0 | 0.0 | 0.0 | 0.00 | 0.00 | 0.00 | 89 | 1018.1 |
| 20260901043543 | 74 | 0 | 0.0 | 0.0 | 0.00 | 0.00 | 0.00 | 89 | 1018.1 |
| 20260901043103 | 73 | 0 | 0.0 | 0.0 | 0.00 | 0.00 | 0.00 | 90 | 1018.2 |
| 20260901042542 | 73 | 0 | 0.0 | 0.0 | 0.00 | 0.00 | 0.00 | 91 | 1018.1 |
| 20260901042043 | 73 | 0 | 0.0 | 0.0 | 0.00 | 0.00 | 0.00 | 91 | 1018.1 |
| 20260901041605 | 73 | 0 | 0.0 | 0.0 | 0.00 | 0.00 | 0.00 | 91 | 1018.0 |
| 20260901041043 | 72 | 0 | 0.0 | 0.0 | 0.00 | 0.00 | 0.00 | 91 | 1018.0 |
| 20260901040543 | 73 | 0 | 0.0 | 0.0 | 0.00 | 0.00 | 0.00 | 91 | 1018.1 |
| 20260901040124 | 72 | 0 | 0.0 | 0.0 | 0.00 | 0.00 | 0.00 | 91 | 1018.0 |
| 20260901035543 | 73 | 0 | 0.0 | 0.0 | 0.00 | 0.00 | 0.00 | 91 | 1018.1 |
| 20260901035044 | 73 | 0 | 0.0 | 0.0 | 0.00 | 0.00 | 0.00 | 90 | 1018.0 |
| 20260901034605 | 73 | 0 | 0.0 | 0.0 | 0.00 | 0.00 | 0.00 | 90 | 1018.0 |
| 20260901034043 | 73 | 0 | 0.0 | 0.0 | 0.00 | 0.00 | 0.00 | 90 | 1018.1 |
| 20260901033543 | 74 | 0 | 0.0 | 0.0 | 0.00 | 0.00 | 0.00 | 89 | 1017.9 |
| 20260901033125 | 74 | 0 | 0.0 | 0.0 | 0.00 | 0.00 | 0.00 | 89 | 1018.0 |
| 20260901032543 | 74 | 0 | 0.0 | 0.0 | 0.00 | 0.00 | 0.00 | 88 | 1018.0 |
| 20260901032043 | 75 | 0 | 0.0 | 0.0 | 0.00 | 0.00 | 0.00 | 88 | 1017.9 |
| 20260901031614 | 74 | 0 | 0.0 | 0.0 | 0.00 | 0.00 | 0.00 | 88 | 1017.9 |
| 20260901031046 | 74 | 0 | 0.0 | 0.0 | 0.00 | 0.00 | 0.00 | 88 | 1018.0 |
| 20260901030542 | 75 | 0 | 0.0 | 0.0 | 0.00 | 0.00 | 0.00 | 88 | 1017.9 |
| 20260901030106 | 75 | 0 | 0.0 | 0.0 | 0.00 | 0.00 | 0.00 | 89 | 1017.9 |
| 20260901025543 | 75 | 0 | 0.0 | 0.0 | 0.00 | 0.00 | 0.00 | 89 | 1017.8 |
| 20260901025043 | 75 | 0 | 0.0 | 0.0 | 0.00 | 0.00 | 0.00 | 88 | 1017.9 |
| 20260901024603 | 75 | 0 | 0.0 | 0.0 | 0.00 | 0.00 | 0.00 | 89 | 1017.8 |
| 20260901024044 | 75 | 0 | 0.0 | 0.0 | 0.00 | 0.00 | 0.00 | 88 | 1017.9 |
| 20260901023542 | 75 | 0 | 0.0 | 0.0 | 0.00 | 0.00 | 0.00 | 89 | 1017.8 |
| 20260901023106 | 75 | 0 | 0.0 | 0.0 | 0.00 | 0.00 | 0.00 | 88 | 1017.8 |
| 20260901022543 | 75 | 0 | 0.0 | 0.0 | 0.00 | 0.00 | 0.00 | 87 | 1017.9 |
| 20260901022041 | 76 | 0 | 0.0 | 0.0 | 0.00 | 0.00 | 0.00 | 87 | 1017.8 |
| 20260901021608 | 76 | 0 | 0.0 | 0.0 | 0.00 | 0.00 | 0.00 | 87 | 1017.8 |
| 20260901021042 | 76 | 0 | 0.0 | 0.0 | 0.00 | 0.00 | 0.00 | 87 | 1017.6 |
| 20260901020544 | 76 | 0 | 0.0 | 0.0 | 0.00 | 0.00 | 0.00 | 86 | 1017.6 |
| 20260901020108 | 77 | 0 | 0.0 | 0.0 | 0.00 | 0.00 | 0.00 | 85 | 1017.5 |
| 20260901015542 | 77 | 0 | 0.0 | 0.0 | 0.00 | 0.00 | 0.00 | 85 | 1017.5 |
| 20260901015044 | 77 | 0 | 0.0 | 0.0 | 0.00 | 0.00 | 0.00 | 84 | 1017.4 |
| 20260901014608 | 77 | 0 | 0.0 | 0.0 | 0.00 | 0.00 | 0.00 | 84 | 1017.3 |
| 20260901014046 | 77 | 0 | 0.0 | 0.0 | 0.00 | 0.00 | 0.00 | 85 | 1017.3 |
| 20260901013544 | 77 | 0 | 0.0 | 0.0 | 0.00 | 0.00 | 0.00 | 85 | 1017.3 |
| 20260901013109 | 77 | 0 | 0.0 | 0.0 | 0.00 | 0.00 | 0.00 | 85 | 1017.1 |
| 20260901012542 | 77 | 0 | 0.0 | 0.0 | 0.00 | 0.00 | 0.00 | 84 | 1017.0 |
| 20260901012042 | 77 | 0 | 0.0 | 0.0 | 0.00 | 0.00 | 0.00 | 84 | 1017.0 |
| 20260901011613 | 78 | 0 | 0.0 | 0.0 | 0.00 | 0.00 | 0.00 | 84 | 1016.9 |
| 20260901011042 | 78 | 0 | 0.0 | 0.0 | 0.00 | 0.00 | 0.00 | 84 | 1017.0 |
| 20260901010543 | 78 | 0 | 0.0 | 0.0 | 0.00 | 0.00 | 0.00 | 84 | 1016.9 |
| 20260901010108 | 79 | 0 | 0.0 | 0.0 | 0.00 | 0.00 | 0.00 | 83 | 1017.0 |
| 20260901005543 | 79 | 0 | 0.0 | 0.0 | 0.00 | 0.00 | 0.00 | 84 | 1017.0 |
| 20260901005044 | 79 | 0 | 0.0 | 0.0 | 0.00 | 0.00 | 0.00 | 83 | 1016.9 |
| 20260901004608 | 80 | 0 | 0.0 | 0.0 | 0.00 | 0.00 | 0.00 | 82 | 1016.9 |
| 20260901004042 | 80 | 0 | 0.0 | 0.0 | 0.00 | 0.00 | 0.00 | 82 | 1016.8 |
| 20260901003542 | 80 | 0 | 0.0 | 0.0 | 0.00 | 0.00 | 0.00 | 82 | 1017.0 |
| 20260901003057 | 81 | 0 | 0.0 | 0.0 | 0.00 | 0.00 | 0.00 | 79 | 1017.0 |
| 20260901002544 | 82 | 0 | 0.0 | 0.0 | 0.00 | 0.00 | 0.00 | 78 | 1016.9 |
| 20260901002042 | 82 | 0 | 0.0 | 1.7 | 0.00 | 0.00 | 0.00 | 78 | 1016.8 |
| 20260901001606 | 82 | 0 | 0.0 | 1.7 | 0.00 | 0.00 | 0.00 | 78 | 1016.9 |
| 20260901001043 | 83 | 0 | 0.0 | 1.7 | 0.00 | 0.00 | 0.00 | 77 | 1017.0 |
| 20260901000542 | 84 | 0 | 0.0 | 0.0 | 0.00 | 0.00 | 0.00 | 75 | 1016.9 |
| 20260901000107 | 84 | 0 | 0.0 | 0.0 | 0.00 | 0.00 | 0.00 | 75 | 1016.9 |
| 20260831235543 | 85 | 0 | 0.0 | 0.0 | 0.00 | 0.00 | 0.00 | 71 | 1016.9 |
| 20260831235042 | 86 | 0 | 0.0 | 1.7 | 0.00 | 0.00 | 0.00 | 69 | 1017.0 |
| 20260831234606 | 87 | 0 | 0.0 | 1.7 | 0.00 | 0.00 | 0.00 | 67 | 1017.1 |
| 20260831234044 | 88 | 0 | 0.0 | 1.7 | 0.00 | 0.00 | 0.00 | 67 | 1017.1 |
| 20260831233542 | 88 | 0 | 0.0 | 0.0 | 0.00 | 0.00 | 0.00 | 62 | 1017.1 |
| 20260831233108 | 87 | 0 | 0.0 | 0.0 | 0.00 | 0.00 | 0.00 | 67 | 1017.2 |
| 20260831232543 | 87 | 0 | 0.0 | 0.9 | 0.00 | 0.00 | 0.00 | 70 | 1017.1 |
| 20260831232042 | 88 | 0 | 0.0 | 2.6 | 0.00 | 0.00 | 0.00 | 69 | 1017.3 |
| 20260831231606 | 88 | 0 | 0.0 | 2.6 | 0.00 | 0.00 | 0.00 | 67 | 1017.2 |
| 20260831231042 | 88 | 0 | 0.0 | 1.7 | 0.00 | 0.00 | 0.00 | 67 | 1017.2 |
| 20260831230542 | 88 | 0 | 0.0 | 1.7 | 0.00 | 0.00 | 0.00 | 67 | 1017.2 |
| 20260831230140 | 89 | 180 | 0.9 | 1.7 | 0.00 | 0.00 | 0.00 | 64 | 1017.3 |
| 20260831225541 | 89 | 194 | 0.9 | 2.6 | 0.00 | 0.00 | 0.00 | 63 | 1017.3 |
| 20260831225041 | 90 | 186 | 0.9 | 2.6 | 0.00 | 0.00 | 0.00 | 64 | 1017.3 |
| 20260831224621 | 90 | 0 | 0.9 | 3.5 | 0.00 | 0.00 | 0.00 | 63 | 1017.4 |
| 20260831224043 | 90 | 207 | 1.7 | 3.5 | 0.00 | 0.00 | 0.00 | 59 | 1017.4 |
| 20260831223545 | 90 | 211 | 0.9 | 3.5 | 0.00 | 0.00 | 0.00 | 59 | 1017.5 |
| 20260831223102 | 90 | 207 | 2.6 | 3.5 | 0.00 | 0.00 | 0.00 | 60 | 1017.4 |
| 20260831222543 | 91 | 211 | 1.7 | 3.5 | 0.00 | 0.00 | 0.00 | 54 | 1017.5 |
| 20260831222043 | 91 | 193 | 1.7 | 3.5 | 0.00 | 0.00 | 0.00 | 61 | 1017.5 |
| 20260831221630 | 91 | 202 | 1.7 | 3.5 | 0.00 | 0.00 | 0.00 | 61 | 1017.4 |
| 20260831221042 | 92 | 172 | 1.7 | 3.5 | 0.00 | 0.00 | 0.00 | 57 | 1017.4 |
| 20260831220543 | 92 | 236 | 1.7 | 5.2 | 0.00 | 0.00 | 0.00 | 53 | 1017.6 |
| 20260831220104 | 92 | 263 | 2.6 | 5.2 | 0.00 | 0.00 | 0.00 | 51 | 1017.6 |
| 20260831215544 | 92 | 259 | 2.6 | 7.0 | 0.00 | 0.00 | 0.00 | 54 | 1017.5 |
| 20260831215043 | 92 | 235 | 1.7 | 7.0 | 0.00 | 0.00 | 0.00 | 55 | 1017.6 |
| 20260831214603 | 92 | 238 | 1.7 | 7.0 | 0.00 | 0.00 | 0.00 | 54 | 1017.7 |
| 20260831214043 | 92 | 297 | 1.7 | 4.3 | 0.00 | 0.00 | 0.00 | 52 | 1017.6 |
| 20260831213542 | 92 | 292 | 0.0 | 4.3 | 0.00 | 0.00 | 0.00 | 52 | 1017.7 |
| 20260831213102 | 92 | 240 | 0.9 | 6.1 | 0.00 | 0.00 | 0.00 | 52 | 1017.8 |
| 20260831212543 | 92 | 128 | 0.9 | 6.1 | 0.00 | 0.00 | 0.00 | 52 | 1017.7 |
| 20260831212042 | 92 | 103 | 2.6 | 5.2 | 0.00 | 0.00 | 0.00 | 54 | 1017.8 |
| 20260831211616 | 92 | 193 | 0.9 | 5.2 | 0.00 | 0.00 | 0.00 | 58 | 1017.7 |
| 20260831211042 | 92 | 229 | 2.6 | 5.2 | 0.00 | 0.00 | 0.00 | 53 | 1017.8 |
| 20260831210544 | 92 | 327 | 0.9 | 3.5 | 0.00 | 0.00 | 0.00 | 51 | 1017.8 |
| 20260831205543 | 92 | 248 | 2.6 | 6.1 | 0.00 | 0.00 | 0.00 | 52 | 1018.0 |
| 20260831205043 | 93 | 255 | 1.7 | 5.2 | 0.00 | 0.00 | 0.00 | 53 | 1018.0 |
| 20260831204559 | 93 | 198 | 1.7 | 5.2 | 0.00 | 0.00 | 0.00 | 54 | 1018.0 |
| 20260831204041 | 93 | 287 | 1.7 | 4.3 | 0.00 | 0.00 | 0.00 | 56 | 1018.0 |
| 20260831203542 | 92 | 211 | 1.7 | 4.3 | 0.00 | 0.00 | 0.00 | 56 | 1018.1 |
| 20260831203057 | 92 | 0 | 1.7 | 4.3 | 0.00 | 0.00 | 0.00 | 53 | 1018.1 |
| 20260831202542 | 92 | 269 | 0.9 | 6.1 | 0.00 | 0.00 | 0.00 | 53 | 1018.1 |
| 20260831202042 | 92 | 252 | 2.6 | 7.0 | 0.00 | 0.00 | 0.00 | 52 | 1018.1 |
| 20260831201608 | 92 | 233 | 2.6 | 6.1 | 0.00 | 0.00 | 0.00 | 55 | 1018.3 |
| 20260831201043 | 93 | 331 | 1.7 | 3.5 | 0.00 | 0.00 | 0.00 | 52 | 1018.3 |
| 20260831200543 | 92 | 192 | 0.9 | 3.5 | 0.00 | 0.00 | 0.00 | 53 | 1018.2 |
| 20260831195540 | 92 | 0 | 0.0 | 5.2 | 0.00 | 0.00 | 0.00 | 53 | 1018.4 |
| 20260831195044 | 92 | 271 | 0.9 | 7.0 | 0.00 | 0.00 | 0.00 | 52 | 1018.5 |
| 20260831194658 | 92 | 293 | 1.7 | 7.0 | 0.00 | 0.00 | 0.00 | 55 | 1018.6 |
| 20260831194043 | 92 | 238 | 3.5 | 7.8 | 0.00 | 0.00 | 0.00 | 52 | 1018.6 |
| 20260831193541 | 92 | 218 | 3.5 | 7.8 | 0.00 | 0.00 | 0.00 | 54 | 1018.7 |
| 20260831193108 | 92 | 277 | 3.5 | 7.8 | 0.00 | 0.00 | 0.00 | 57 | 1018.6 |
| 20260831192543 | 91 | 258 | 0.9 | 7.0 | 0.00 | 0.00 | 0.00 | 54 | 1018.6 |
| 20260831192044 | 91 | 289 | 3.5 | 7.0 | 0.00 | 0.00 | 0.00 | 54 | 1018.7 |
| 20260831191608 | 91 | 196 | 0.0 | 6.1 | 0.00 | 0.00 | 0.00 | 57 | 1018.8 |
| 20260831191043 | 90 | 260 | 1.7 | 6.1 | 0.00 | 0.00 | 0.00 | 57 | 1018.7 |
| 20260831190542 | 91 | 287 | 2.6 | 6.1 | 0.00 | 0.00 | 0.00 | 56 | 1018.8 |
| 20260831190110 | 91 | 253 | 1.7 | 7.0 | 0.00 | 0.00 | 0.00 | 58 | 1018.8 |
| 20260831185544 | 92 | 257 | 1.7 | 7.0 | 0.00 | 0.00 | 0.00 | 57 | 1018.8 |
| 20260831185042 | 91 | 236 | 1.7 | 3.5 | 0.00 | 0.00 | 0.00 | 57 | 1019.0 |
| 20260831184613 | 91 | 0 | 0.0 | 2.6 | 0.00 | 0.00 | 0.00 | 55 | 1018.9 |
| 20260831184045 | 90 | 245 | 0.0 | 5.2 | 0.00 | 0.00 | 0.00 | 57 | 1019.0 |
| 20260831183543 | 89 | 269 | 1.7 | 5.2 | 0.00 | 0.00 | 0.00 | 58 | 1019.1 |
| 20260831183056 | 91 | 307 | 2.6 | 5.2 | 0.00 | 0.00 | 0.00 | 57 | 1019.2 |
| 20260831182542 | 90 | 220 | 1.7 | 6.1 | 0.00 | 0.00 | 0.00 | 58 | 1019.4 |
| 20260831182044 | 91 | 258 | 3.5 | 6.1 | 0.00 | 0.00 | 0.00 | 60 | 1019.4 |
| 20260831181557 | 91 | 16 | 1.7 | 6.1 | 0.00 | 0.00 | 0.00 | 57 | 1019.3 |
| 20260831181043 | 91 | 279 | 2.6 | 7.0 | 0.00 | 0.00 | 0.00 | 57 | 1019.4 |
| 20260831180541 | 90 | 281 | 1.7 | 7.0 | 0.00 | 0.00 | 0.00 | 57 | 1019.5 |
| 20260831180100 | 90 | 274 | 3.5 | 7.0 | 0.00 | 0.00 | 0.00 | 56 | 1019.5 |
| 20260831175545 | 90 | 294 | 2.6 | 6.1 | 0.00 | 0.00 | 0.00 | 59 | 1019.7 |
| 20260831175043 | 90 | 319 | 2.6 | 5.2 | 0.00 | 0.00 | 0.00 | 60 | 1019.7 |
| 20260831174606 | 90 | 293 | 1.7 | 6.1 | 0.00 | 0.00 | 0.00 | 62 | 1019.8 |
| 20260831174043 | 89 | 284 | 2.6 | 6.1 | 0.00 | 0.00 | 0.00 | 64 | 1019.8 |